Portland, ME

3:36 AM EST on November 18, 2019 (GMT -0500)
Portland International

Weather History for KPWM - October, 2019

Change the Weather History Date:

Wednesday, October 23, 2019

  Actual Average Record
Temperature  
Mean Temperature 56 °F 46 °F  
Max Temperature 64 °F 56 °F 83 °F (1947)
Min Temperature 48 °F 37 °F 22 °F (1997)
Degree Days  
Heating Degree Days 8 19  
Month to date heating degree days 293 344  
Since 1 July heating degree days 455 565  
Cooling Degree Days 0 0  
Month to date cooling degree days 0 0  
Year to date cooling degree days 474 358  
Growing Degree Days 6 (Base 50)    
Moisture  
Dew Point 49 °F    
Average Humidity 85    
Maximum Humidity 100    
Minimum Humidity 44    
Precipitation  
Precipitation 1.76 in 0.17 in 1.64 in (1956)
Month to date precipitation 4.34 3.59  
Year to date precipitation 39.07 37.02  
Snow  
Snow 0.00 in 0.00 in 0.20 in (1969)
Month to date snowfall 0.0 0.0  
Since 1 July snowfall 0.0 0.0  
Since 1 September snowfall 0.0 0.0  
Snow Depth 0.00 in    
Sea Level Pressure  
Sea Level Pressure 29.85 in    
Wind  
Wind Speed 9 mph ()    
Max Wind Speed 20 mph    
Max Gust Speed 26 mph    
Visibility 4.2 miles    
Events Rain    
T = Trace of Precipitation, MM = Missing Value Source: Averaged Metar Reports

Daily Weather History Graph

Daily Weather History Graph

Search for Another Location

Airport or City:

Astronomy

Oct. 23, 2019 Rise Set
Actual Time 7:05 AM EDT 5:45 PM EDT
Civil Twilight 6:35 AM EDT 6:14 PM EDT
Nautical Twilight 6:02 AM EDT 6:48 PM EDT
Astronomical Twilight 5:29 AM EDT 7:21 PM EDT
Moon 1:05 AM EDT (10/23) 3:46 PM EDT (10/23)
Length of Visible Light 11h 38m
Length of Day
10h 40m
Waning Crescent, 27% of the Moon is Illuminated
Oct 23
Waning Crescent
Oct 27
New
Nov 4
First Quarter
Nov 12
Full
Nov 19
Last Quarter

Hourly Weather History & Observations

Time (EDT) Temp. Dew Point Humidity Pressure Visibility Wind Dir Wind Speed Gust Speed Precip Events Conditions
12:04 AM 53.1 °F 51.1 °F 93% 29.96 in 2.0 mi East 15.0 mph - 0.02 in Rain Light Rain
12:12 AM 53.1 °F 51.1 °F 93% 29.95 in 1.8 mi East 16.1 mph - 0.03 in Rain Light Rain
12:51 AM 53.1 °F 51.1 °F 93% 29.94 in 2.0 mi East 13.8 mph - 0.17 in Rain Rain
1:26 AM 53.1 °F 51.1 °F 93% 29.92 in 1.8 mi East 10.4 mph - 0.09 in Rain Light Rain
1:34 AM 53.1 °F 52.0 °F 96% 29.91 in 2.5 mi East 10.4 mph - 0.10 in Rain Light Rain
1:51 AM 54.0 °F 52.0 °F 93% 29.91 in 2.0 mi ENE 6.9 mph - 0.15 in Rain Light Rain
1:58 AM 54.0 °F 52.0 °F 93% 29.90 in 1.5 mi ENE 6.9 mph - 0.06 in Rain Heavy Rain
2:20 AM 54.0 °F 52.0 °F 93% 29.89 in 2.0 mi ENE 6.9 mph - 0.14 in Rain Rain
2:29 AM 54.0 °F 52.0 °F 93% 29.88 in 2.5 mi ENE 8.1 mph - 0.16 in Rain Light Rain
2:37 AM 54.0 °F 52.0 °F 93% 29.89 in 1.2 mi ENE 4.6 mph - 0.22 in Rain Heavy Rain
2:44 AM 54.0 °F 52.0 °F 93% 29.88 in 2.0 mi NE 4.6 mph - 0.24 in Rain Rain
2:51 AM 54.0 °F 52.0 °F 93% 29.88 in 1.8 mi North 4.6 mph - 0.29 in Rain Rain
2:59 AM 54.0 °F 52.0 °F 93% 29.87 in 1.2 mi North 5.8 mph - 0.04 in Rain Heavy Rain
3:09 AM 54.0 °F 52.0 °F 93% 29.88 in 2.0 mi North 4.6 mph - 0.13 in Rain Rain
3:18 AM 54.0 °F 52.0 °F 93% 29.87 in 1.8 mi North 6.9 mph - 0.19 in Rain Heavy Rain
3:28 AM 54.0 °F 52.0 °F 93% 29.86 in 2.0 mi North 6.9 mph - 0.26 in Rain Rain
3:48 AM 53.6 °F 51.8 °F 94% 29.86 in 1.8 mi North 9.2 mph - 0.31 in Rain Rain
3:51 AM 53.1 °F 52.0 °F 96% 29.86 in 1.8 mi North 8.1 mph - 0.32 in Rain Rain
3:56 AM 53.1 °F 52.0 °F 96% 29.86 in 2.0 mi North 10.4 mph - 0.02 in Rain Rain
4:14 AM 53.1 °F 51.1 °F 93% 29.85 in 3.0 mi North 9.2 mph - 0.08 in Rain Rain
4:18 AM 53.1 °F 51.1 °F 93% 29.85 in 2.5 mi NNE 8.1 mph - 0.09 in Rain Rain
4:24 AM 53.1 °F 51.1 °F 93% 29.84 in 3.0 mi North 6.9 mph - 0.11 in Rain Rain
4:49 AM 53.6 °F 51.8 °F 94% 29.83 in 2.0 mi North 6.9 mph - 0.13 in Rain Light Rain
4:51 AM 53.1 °F 51.1 °F 93% 29.83 in 2.0 mi NNE 6.9 mph - 0.13 in Rain Light Rain
5:14 AM 53.1 °F 51.1 °F 93% 29.82 in 2.0 mi NNE 5.8 mph - 0.14 in Rain Heavy Rain
5:51 AM 53.1 °F 51.1 °F 93% 29.81 in 2.0 mi NE 4.6 mph - 0.22 in Rain Light Rain
6:48 AM 53.6 °F 51.8 °F 94% 29.77 in 1.5 mi NNE 11.5 mph - 0.02 in Rain Light Rain
6:51 AM 53.1 °F 51.1 °F 93% 29.76 in 1.5 mi NE 10.4 mph - 0.02 in Rain Light Rain
7:24 AM 54.0 °F 52.0 °F 93% 29.74 in 1.2 mi NNE 9.2 mph - 0.02 in Rain Light Rain
7:51 AM 54.0 °F 53.1 °F 97% 29.76 in 1.5 mi Variable 3.5 mph - 0.13 in Rain Heavy Rain
8:23 AM 53.1 °F 51.1 °F 93% 29.74 in 6.0 mi NNW 9.2 mph - 0.15 in Rain Light Rain
8:49 AM 53.6 °F 51.8 °F 94% 29.74 in 6.0 mi NW 6.9 mph - 0.17 in Rain Light Rain
9:14 AM 53.1 °F 51.1 °F 93% 29.76 in 2.0 mi NW 6.9 mph - 0.02 in Rain Heavy Rain
9:51 AM 52.0 °F 50.0 °F 93% 29.74 in 2.5 mi NW 15.0 mph 19.6 mph 0.22 in Rain Rain
10:51 AM 53.1 °F 50.0 °F 89% 29.74 in 10.0 mi NNW 10.4 mph - 0.11 in   Overcast
11:51 AM 55.9 °F 51.1 °F 84% 29.72 in 10.0 mi NNW 10.4 mph - N/A   Mostly Cloudy
12:51 PM 60.1 °F 52.0 °F 75% 29.74 in 10.0 mi NW 13.8 mph - N/A   Overcast
2:51 PM 64.0 °F 52.0 °F 65% 29.75 in 10.0 mi NNW 12.7 mph - N/A   Mostly Cloudy
3:51 PM 64.9 °F 43.0 °F 45% 29.78 in 10.0 mi WNW 13.8 mph - N/A   Scattered Clouds
4:51 PM 62.1 °F 43.0 °F 50% 29.81 in 10.0 mi NW 9.2 mph - N/A   Scattered Clouds
5:51 PM 57.9 °F 42.1 °F 56% 29.86 in 10.0 mi West 9.2 mph - N/A   Scattered Clouds
7:51 PM 55.9 °F 37.0 °F 49% 29.93 in 10.0 mi WSW 6.9 mph - N/A   Clear
8:51 PM 53.1 °F 37.9 °F 57% 29.97 in 10.0 mi SW 4.6 mph - N/A   Clear
9:51 PM 52.0 °F 37.9 °F 59% 30.01 in 10.0 mi WSW 4.6 mph - N/A   Clear
10:51 PM 51.1 °F 37.0 °F 59% 30.02 in 10.0 mi SW 5.8 mph - N/A   Clear
11:51 PM 48.9 °F 37.0 °F 64% 30.04 in 10.0 mi SW 5.8 mph - N/A   Clear